CAPE
2 12 9 4 1 0 0 0 3 0 3 0 1 1 1 1 0 0 0 0 0 0 0 0 0 0 0 0 0 0 0 0 0 0 0 0 0 0 0 0 0 0 0 0
0 0 0 0 0 0 0 0 0 0 0 0 0 0 0 0 0 0 0 0 0 0 0 0 0 0 0 0 0 0 0 0 0 0 0 0 0 0 0 0 0 0 0 0
0 0 0 0 0 0 0 0 0 0 0 0 0 0 0 0 0 0 0 0 9 0 0 0 0 0 0 0 0 0 0 0 0 0 0 0 0 0 0 0 0 0 0 0
0 0 0 0 0 0 0 1 0 0 0 0 0 0 0 0 0 0 0 0 0 0 0 0 0 0 0 0 0 0 0 0 0 0 0 0 0 0 0 0 0 0 0 0
1 0 0 0 0 0 0 0 0 0 0 0 0 0 0 0 0 0 0 0 0 0 0 0 0 0 0 0 0 0 0 0 0 0 0 0 0 0 0 0 0 0 0 0
0 0 0 0 0 0 0 0 0 0 0 0 0 0 0 0 0 0 0 0 0 0 0 0 0 0 0 0 0 0 0 0 0 0 0 0 0 0 0 0 0 0 0 0
0 0 0 0 0 0 0 0 0 0 0 0 0 0 0 0 0 0 0 0 0 0 0 0 0 0 0 0 0 0 0 0 0 0 0 0 0 0 0 0 0 0 0 0
0 0 0 0 0 0 0 0 0 0 0 0 0 0 0 0 0 0 0 0 0 0 0 0 0 0 0 0 0 0 0 0 0 0 0 0 0 0 0 0 0 0 0 0
0 0 0 0 0 0 0 0 0 0 0 0 0 0 0 0 0 0 0 0 0 0 0 0 0 0 0 0 0 0 0 0 0 0 0 0 0 0 0 0 0 0 0 0
0 0 0 0 0 0 0 0 0 0 0 0 0 0 0 0 0 0 0 0 0 0 0 0 0 0 0 0 0 0 0 0 0 0 0 0 0 0 0 0 0 0 0 0
0 0 0 0 0 0 0 0 0 0 0 0 0 0 0 0 0 0 0 0 0 0 0 0 0 0 0 0 0 0 0 0 0 0 0 1 0 0 0 0 0 0 0 0
0 0 0 0 0 0 0 0 0 0 0 0 0 0 0 0 0 0 0 0 0 0 0 0 0 0 0 0 0 0 0 0 0 0 0 1 0 0 1 5 8 12 9 1
0 0 0 0 0 0 0 0 0 0 0 0 0 0 0 0 0 0 0 0 0 0 0 0 0 0 0 0 0 0 0 0 0 2 1 3 2 0 0 0 12 20 21 21
0 0 0 0 0 0 0 0 0 0 0 0 0 0 0 0 0 0 0 0 0 0 0 0 0 0 0 0 0 0 0 0 0 0 0 1 3 0 0 0 0 0 10 15
0 0 0 0 0 0 0 0 0 0 0 0 0 0 0 0 0 0 0 0 0 0 0 0 0 0 0 0 0 0 0 0 0 1 3 3 0 0 0 0 0 0 0 4
0 0 0 0 0 0 0 0 0 0 0 0 0 0 0 0 0 0 0 0 0 0 0 0 0 0 0 0 0 0 0 0 0 0 0 0 2 0 0 0 0 0 0 0
0 0 0 0 0 0 0 0 0 0 0 0 0 0 0 0 0 0 0 0 0 0 0 0 0 0 0 0 0 0 0 0 0 0 0 0 2 0 0 0 0 0 0 0
0 0 0 0 0 0 0 0 0 0 0 0 0 0 0 0 0 0 0 0 0 0 0 0 0 0 0 0 0 0 0 0 0 0 0 0 0 0 0 0 0 0 0 0
0 0 0 0 0 0 0 0 0 0 0 0 0 0 0 0 0 0 0 0 0 0 0 0 21 6 0 0 2 0 0 0 0 0 0 0 0 0 0 0 0 0 0 0
0 0 0 0 0 0 0 0 0 0 0 0 0 0 0 0 0 0 0 0 0 0 0 0 0 0 0 0 6 0 0 0 0 0 0 0 0 0 0 0 0 0 0 0
0 0 0 0 0 0 0 0 0 0 0 0 0 0 0 0 0 0 0 0 0 0 0 0 0 0 0 0 0 0 0 0 0 0 0 0 0 0 0 0 0 0 0 0
0 0 0 0 0 0 0 0 0 0 0 0 0 0 0 0 0 0 0 0 0 0 0 0 0 0 0 2 0 0 0 0 0 0 0 0 0 0 0 0 0 0 0 0
0 0 0 0 0 0 0 0 0 0 0 0 0 0 0 0 0 0 0 0 0 0 0 0 1 3 8 0 0 0 0 0 0 0 0 0 0 0 0 0 0 0 0 0
0 0 0 0 0 0 0 0 0 0 0 0 0 0 0 0 0 0 0 0 0 0 0 0 2 5 0 0 0 0 0 0 0 0 0 0 0 0 0 0 0 0 0 0
0 0 0 0 0 0 0 0 0 0 0 0 0 0 0 0 0 0 0 0 0 0 0 0 0 0 0 0 0 0 0 0 0 0 0 0 0 0 0 0 0 0 0 0
0 0 0 0 0 0 0 0 0 0 0 0 0 0 0 0 0 0 0 0 0 0 0 0 0 0 0 0 0 0 0 0 0 0 0 0 0 0 0 0 0 0 0 0
0 0 0 0 0 0 0 0 0 0 0 0 0 0 0 0 0 0 0 0 0 0 0 0 0 0 0 0 0 0 0 0 0 0 0 0 0 0 0 0 0 0 0 0
CIN
-2 -4 -2 -5 0 0 0 -1 0 0 -1 0 0 0 0 0 0 0 0 0 0 0 0 0 0 0 0 0 0 0 0 0 0 0 0 0 0 0 0 0 0 0 0 0
0 0 0 0 0 0 0 0 0 0 0 0 0 0 0 0 0 0 0 0 0 0 0 0 0 0 0 0 0 0 0 0 0 0 0 0 0 0 0 0 0 0 0 0
0 0 0 0 0 0 0 0 0 0 0 0 0 0 0 0 0 0 0 0 0 0 0 0 0 0 0 0 0 0 0 0 0 0 0 0 0 0 0 0 0 0 0 0
0 0 0 0 0 0 0 0 0 0 0 0 0 0 0 0 0 0 0 0 0 0 0 0 0 0 0 0 0 0 0 0 0 0 0 0 0 0 0 0 0 0 0 0
-2 0 0 0 0 0 0 0 0 0 0 0 0 0 0 0 0 0 0 0 0 0 0 0 0 0 0 0 0 0 0 0 0 0 0 0 0 0 0 0 0 0 0 0
0 0 0 0 0 0 0 0 0 0 0 0 0 0 0 0 0 0 0 0 0 0 0 0 0 0 0 0 0 0 0 0 0 0 0 0 0 0 0 0 0 0 0 0
0 0 0 0 0 0 0 0 0 0 0 0 0 0 0 0 0 0 0 0 0 0 0 0 0 0 0 0 0 0 0 0 0 0 0 0 0 0 0 0 0 0 0 0
0 0 0 0 0 0 0 0 0 0 0 0 0 0 0 0 0 0 0 0 0 0 0 0 0 0 0 0 0 0 0 0 0 0 0 0 0 0 0 0 0 0 0 0
0 0 0 0 0 0 0 0 0 0 0 0 0 0 0 0 0 0 0 0 0 0 0 0 0 0 0 0 0 0 0 0 0 0 0 0 0 0 0 0 0 0 0 0
0 0 0 0 0 0 0 0 0 0 0 0 0 0 0 0 0 0 0 0 0 0 0 0 0 0 0 0 0 0 0 0 0 0 0 0 0 0 0 0 0 0 0 0
0 0 0 0 0 0 0 0 0 0 0 0 0 0 0 0 0 0 0 0 0 0 0 0 0 0 0 0 0 0 0 0 0 0 0 0 0 0 0 0 0 0 0 0
0 0 0 0 0 0 0 0 0 0 0 0 0 0 0 0 0 0 0 0 0 0 0 0 0 0 0 0 0 0 0 0 0 0 0 0 0 0 0 0 0 0 0 0
0 0 0 0 0 0 0 0 0 0 0 0 0 0 0 0 0 0 0 0 0 0 0 0 0 0 0 0 0 0 0 0 0 0 0 0 -1 0 0 0 0 0 0 0
0 0 0 0 0 0 0 0 0 0 0 0 0 0 0 0 0 0 0 0 0 0 0 0 0 0 0 0 0 0 0 0 0 -1 -1 0 0 0 0 0 0 0 0 0
0 0 0 0 0 0 0 0 0 0 0 0 0 0 0 0 0 0 0 0 0 0 0 0 0 0 0 0 0 0 0 0 0 -1 -1 -1 0 0 0 0 0 0 0 0
0 0 0 0 0 0 0 0 0 0 0 0 0 0 0 0 0 0 0 0 0 0 0 0 0 0 0 0 0 0 0 0 0 0 0 0 0 -1 0 0 0 0 0 0
0 0 0 0 0 0 0 0 0 0 0 0 0 0 0 0 0 0 0 0 0 0 0 0 0 0 0 0 0 0 0 0 0 0 0 -1 -1 0 0 0 0 0 0 0
0 0 0 0 0 0 0 0 0 0 0 0 0 0 0 0 0 0 0 0 0 0 0 0 0 0 0 0 0 0 0 0 0 0 0 0 0 0 0 0 0 0 0 0
0 0 0 0 0 0 0 0 0 0 0 0 0 0 0 0 0 0 0 0 0 0 0 0 0 0 0 0 0 0 0 0 0 0 0 0 0 0 0 0 0 0 0 0
0 0 0 0 0 0 0 0 0 0 0 0 0 0 0 0 0 0 0 0 0 0 0 0 0 0 0 0 0 0 0 0 0 0 0 0 0 0 0 0 0 0 0 0
0 0 0 0 0 0 0 0 0 0 0 0 0 0 0 0 0 0 0 0 0 0 0 0 0 0 0 0 0 0 0 0 0 0 0 0 0 0 0 0 0 0 0 0
0 0 0 0 0 0 0 0 0 0 0 0 0 0 0 0 0 0 0 0 0 0 0 0 0 0 0 0 0 0 0 0 0 0 0 0 0 0 0 0 0 0 0 0
0 0 0 0 0 0 0 0 0 0 0 0 0 0 0 0 0 0 0 0 0 0 0 0 0 0 0 0 0 0 0 0 0 0 0 0 0 0 0 0 0 0 0 0
0 0 0 0 0 0 0 0 0 0 0 0 0 0 0 0 0 0 0 0 0 0 0 0 0 0 0 0 0 0 0 0 0 0 0 0 0 0 0 0 0 0 0 0
0 0 0 0 0 0 0 0 0 0 0 0 0 0 0 0 0 0 0 0 0 0 0 0 0 0 0 0 0 0 0 0 0 0 0 0 0 0 0 0 0 0 0 0
0 0 0 0 0 0 0 0 0 0 0 0 0 0 0 0 0 0 0 0 0 0 0 0 0 0 0 0 0 0 0 0 0 0 0 0 0 0 0 0 0 0 0 0
0 0 0 0 0 0 0 0 0 0 0 0 0 0 0 0 0 0 0 0 0 0 0 0 0 0 0 0 0 0 0 0 0 0 0 0 0 0 0 0 0 0 0 0
Wind_Speed
18 11 7 7 13 18 16 16 12 19 19 5 10 14 14 12 16 14 17 18 17 17 15 16 16 16 16 15 15 14 14 17 15 10 8 10 11 13 12 14 16 15 14 15
12 18 13 19 18 18 21 20 15 19 8 2 2 7 9 8 10 15 15 14 14 16 14 18 19 17 17 16 17 16 15 14 16 14 9 9 11 11 11 14 14 14 16 16
18 12 8 13 22 21 18 17 2 8 4 2 4 8 11 11 8 12 12 15 12 15 15 15 16 14 16 15 13 15 15 14 15 16 15 12 8 7 11 14 13 15 16 16
13 7 20 8 6 9 11 8 6 5 4 7 7 5 10 5 5 9 11 11 11 11 12 13 15 14 14 14 15 13 13 12 14 16 15 13 7 7 6 8 13 14 15 16
5 9 10 8 3 3 2 6 5 5 7 6 8 6 3 4 4 8 12 8 9 10 12 13 14 15 14 15 15 15 15 15 16 15 16 13 7 7 5 6 9 12 12 14
2 5 7 1 3 1 5 5 7 7 8 8 4 5 9 8 5 8 10 8 10 10 7 9 13 12 13 15 15 15 15 16 14 12 12 13 8 5 3 5 8 7 8 10
6 4 9 5 6 1 7 7 6 5 9 8 6 7 10 9 8 7 8 11 10 10 10 12 10 10 14 13 15 14 15 17 18 12 11 10 9 2 4 4 3 3 3 5
3 3 8 4 4 5 8 4 4 5 12 11 9 10 9 11 11 9 12 14 13 12 13 14 11 10 14 16 14 13 15 17 16 18 10 6 7 6 4 6 7 6 7 4
9 8 4 4 9 12 5 7 8 9 12 8 8 11 10 11 14 13 14 14 12 10 15 17 13 9 14 15 13 16 18 18 17 17 15 10 9 9 6 7 6 7 8 8
15 15 17 17 17 6 8 14 13 8 6 5 10 10 11 12 13 14 15 14 13 13 16 19 16 15 14 15 15 15 18 19 17 16 16 12 9 9 8 8 9 9 10 10
14 17 14 16 16 16 15 10 3 3 2 3 5 12 11 13 16 15 16 16 13 14 16 21 20 19 16 16 15 17 18 17 17 14 15 15 12 10 10 11 12 10 10 9
14 19 15 16 17 3 1 1 3 4 6 6 7 11 12 16 15 15 17 17 17 19 19 22 21 21 18 16 16 18 19 15 13 12 12 13 12 10 20 23 22 26 22 15
19 18 16 13 5 6 2 3 4 5 7 12 15 10 12 16 16 18 18 19 19 21 21 21 21 23 19 18 17 18 19 18 14 14 12 12 12 10 10 9 26 25 27 24
2 3 11 3 0 6 5 6 7 8 8 9 11 11 11 15 20 18 18 18 19 21 22 21 22 23 19 19 18 19 18 23 16 14 13 13 13 10 8 8 8 9 22 21
5 5 4 4 2 5 6 8 12 11 10 11 9 13 12 16 18 20 20 20 21 21 20 20 20 21 19 19 19 19 16 14 13 13 12 14 12 10 9 9 8 8 6 15
4 3 2 3 6 5 7 6 9 13 12 14 15 15 16 16 18 19 19 18 19 19 21 20 20 21 19 19 19 16 15 21 19 13 13 13 12 10 7 7 8 8 8 9
2 2 5 2 7 10 8 8 10 12 14 14 16 17 17 17 17 16 17 17 17 20 20 20 20 18 18 17 17 13 12 13 18 13 12 11 11 9 8 7 8 8 8 8
2 3 4 6 9 10 10 9 11 12 12 15 15 16 16 16 17 17 17 17 17 17 16 16 16 17 17 16 15 13 12 12 12 12 11 11 9 6 6 7 7 7 6 7
2 5 7 9 9 10 10 12 12 12 12 13 14 15 15 15 15 15 16 15 15 16 16 20 21 19 15 16 16 11 10 10 10 10 10 7 4 4 5 5 5 5 6 7
5 5 7 8 8 8 12 11 12 12 12 12 13 13 14 14 14 14 14 15 13 12 19 20 18 14 14 15 16 9 8 7 5 3 2 2 2 2 2 3 4 5 7 8
6 7 8 9 10 9 10 10 10 11 12 11 11 12 13 14 13 12 13 11 15 17 18 19 14 11 9 12 10 8 8 7 6 6 5 5 5 5 6 7 8 7 8 8
5 6 8 8 8 10 9 8 9 11 11 10 10 9 10 12 12 11 9 8 12 20 13 11 11 15 12 15 9 9 9 9 8 7 7 7 7 7 7 7 7 7 8 8
6 5 8 8 8 9 9 8 9 7 9 8 8 8 8 8 7 8 12 13 11 16 11 11 17 19 17 10 9 10 10 10 9 8 8 8 7 7 7 7 7 7 7 8
4 6 6 6 6 5 6 5 5 7 6 6 5 5 6 6 6 2 7 12 15 15 11 13 15 18 15 9 10 10 10 10 9 8 8 10 8 7 8 7 8 7 8 10
6 6 4 5 5 4 5 6 6 5 5 4 4 4 5 3 2 6 7 8 12 11 9 14 17 16 9 9 9 9 9 9 9 8 9 9 8 8 8 8 8 8 8 8
4 4 4 4 5 5 5 4 4 4 4 4 2 4 4 4 4 5 6 8 7 10 8 8 9 9 9 9 9 9 8 8 8 8 8 8 8 8 8 8 7 7 7 6
4 6 5 5 4 5 5 5 4 4 4 2 3 4 4 5 5 6 7 6 7 7 7 8 8 10 9 9 9 9 8 8 11 8 8 8 7 7 7 6 6 5 5 5
Wind_Direction
268 289 317 298 290 286 263 265 264 288 285 28 12 353 352 358 358 0 352 347 352 350 342 344 348 347 349 344 343 339 341 339 325 289 260 239 228 217 204 204 198 199 200 198
297 293 292 281 270 260 266 278 262 258 260 17 316 326 332 335 346 343 342 338 340 340 342 338 340 339 340 341 338 333 342 343 335 324 298 264 244 224 200 204 200 196 200 194
269 285 298 277 251 252 254 263 270 250 112 216 279 312 328 322 324 341 332 316 331 331 333 330 327 329 329 328 328 331 333 333 338 336 325 297 258 228 210 205 195 201 201 195
275 321 268 253 67 73 95 97 99 101 199 218 242 281 295 184 320 318 318 310 316 318 320 315 318 321 323 325 324 326 325 324 334 334 321 304 278 244 241 213 204 201 201 199
226 213 282 293 40 93 185 173 176 208 248 251 268 275 215 335 292 299 300 300 310 311 307 314 314 318 324 327 323 323 324 323 328 331 319 306 269 260 239 227 222 218 207 197
116 221 229 174 251 253 116 262 222 202 232 226 249 309 305 312 299 294 292 296 298 294 280 287 296 313 322 315 317 319 326 320 305 307 297 290 273 256 240 225 233 222 211 204
238 250 288 237 259 127 92 243 227 198 224 222 209 213 277 301 289 280 288 298 296 299 291 291 286 312 304 305 305 312 315 310 304 297 292 289 286 250 242 215 172 189 200 209
79 32 292 215 356 147 220 271 224 260 246 223 238 258 264 283 292 286 294 296 297 299 299 298 301 304 295 293 304 307 299 299 308 308 290 272 247 254 222 218 188 177 168 183
185 216 243 223 231 275 203 227 258 241 241 227 259 268 270 279 284 287 287 286 290 284 288 290 290 281 284 291 306 306 305 304 305 302 298 259 245 231 221 205 214 189 190 199
270 261 255 265 272 257 268 267 273 240 244 231 252 268 281 285 287 291 289 285 290 289 284 287 291 292 286 302 309 302 298 297 298 294 292 270 240 231 220 214 207 209 196 201
252 261 270 266 264 264 266 278 271 284 251 269 287 281 282 282 284 286 289 293 293 285 287 287 296 293 299 302 305 295 291 288 287 285 282 278 241 230 228 229 218 218 208 199
250 261 259 271 277 47 249 290 35 336 316 290 277 279 286 282 286 291 291 294 296 293 292 293 296 295 297 297 297 290 285 284 281 281 280 279 265 250 241 239 238 236 229 198
249 259 271 271 105 56 26 350 324 307 288 290 293 293 294 288 291 294 294 296 295 294 295 296 294 292 297 293 286 279 277 282 281 274 270 270 268 242 249 242 244 239 237 222
347 356 272 94 69 353 344 323 306 289 278 273 288 300 295 297 299 296 295 297 296 293 292 291 288 286 290 286 281 276 274 275 273 272 268 266 265 245 232 232 236 234 231 230
47 29 360 344 353 341 341 338 323 315 314 309 306 300 305 299 298 300 301 298 293 290 289 287 288 291 290 286 281 278 276 272 272 271 271 273 280 252 220 223 224 228 217 225
339 331 10 342 321 336 337 318 300 306 317 310 307 308 306 300 296 296 297 300 304 304 301 298 294 291 291 286 281 277 273 268 261 266 264 259 260 243 217 216 220 225 205 212
28 334 344 322 330 322 316 305 296 297 302 303 303 307 306 304 301 307 311 309 304 300 300 297 296 296 294 289 284 280 277 273 262 260 259 255 255 222 210 208 214 217 216 204
59 298 283 277 295 303 302 299 296 293 295 298 300 302 303 308 310 312 308 307 305 303 303 301 300 297 296 295 290 283 274 264 258 254 259 254 234 210 205 208 210 208 201 199
322 302 304 300 303 298 296 296 294 294 296 297 300 300 305 302 307 304 307 312 313 318 324 318 309 315 305 303 302 298 295 284 269 256 244 224 208 192 196 198 198 184 177 182
305 295 289 286 284 278 286 284 287 290 289 291 295 303 304 308 312 312 313 314 314 321 321 320 323 319 322 319 320 312 311 318 329 354 19 56 84 100 96 108 122 107 83 90
289 289 290 291 288 279 269 278 284 286 290 292 298 300 306 310 314 319 322 327 331 328 322 326 329 332 331 332 339 339 345 354 8 16 32 46 58 62 65 63 74 82 88 88
272 274 281 281 283 286 276 270 269 275 282 293 294 302 313 315 324 326 325 320 326 331 335 332 338 350 352 351 350 357 4 10 15 22 32 40 50 57 61 63 71 74 79 84
277 273 289 284 278 279 287 277 269 268 287 291 301 316 316 309 312 333 336 337 336 338 341 342 350 3 5 6 6 7 9 14 21 27 31 34 39 49 60 65 66 72 79 84
272 276 266 263 274 279 284 278 286 293 287 294 299 311 311 322 329 325 321 321 333 344 344 352 2 9 13 10 12 15 17 16 19 24 33 43 44 47 50 52 64 70 77 80
271 273 266 289 292 282 294 310 310 311 315 319 317 324 318 317 301 315 324 327 337 348 350 354 4 9 14 14 17 21 22 23 24 31 35 38 42 48 52 57 62 66 69 73
297 290 298 309 321 324 321 317 318 321 326 339 332 334 329 332 336 335 329 337 344 351 358 357 3 6 10 17 22 25 27 27 33 38 42 47 50 54 56 59 61 65 70 75
325 352 346 345 345 335 331 338 338 337 335 353 326 346 347 347 350 353 351 352 355 358 1 0 7 12 13 17 22 26 27 31 33 33 34 39 43 47 51 56 60 63 64 69